Wind_Speed
39 39 39 39 39 39 39 39 39 38 37 38 38 38 39 39 39 39 39 40 39 39 38 39 40 40 39 40 40 40 40 40 40 40 40 40 40 39
41 41 41 42 42 41 42 42 41 41 40 40 40 40 41 40 40 40 40 40 40 39 39 39 40 40 40 40 40 41 41 40 40 40 40 41 40 39
43 43 43 44 43 43 43 43 43 43 43 42 43 43 42 41 41 41 41 40 40 40 40 41 41 41 41 41 42 42 42 41 40 40 40 40 39 38
45 45 45 45 45 44 44 44 44 44 44 44 44 44 43 43 43 42 42 41 41 41 41 42 42 42 42 42 43 42 41 41 41 41 40 39 38 38
47 47 47 47 46 46 46 46 46 46 46 45 44 44 45 45 44 43 43 42 42 42 42 42 43 43 43 43 43 42 42 41 41 41 40 39 38 38
48 48 47 48 47 47 47 46 46 47 47 47 46 45 45 45 45 44 44 44 43 43 42 43 43 43 44 44 43 42 42 42 41 40 40 39 39 38
49 48 48 48 49 48 48 48 48 48 48 48 47 47 46 46 46 45 45 44 44 44 44 44 44 44 44 44 43 43 42 41 41 40 40 39 38 38
49 49 50 50 50 50 50 50 51 50 50 50 49 49 48 47 47 47 46 45 44 44 45 44 44 44 44 44 43 43 42 42 41 40 39 39 39 38
51 52 51 52 52 52 53 53 53 53 53 52 51 50 50 49 49 48 48 48 47 46 46 45 45 44 44 43 43 43 42 42 41 40 40 40 40 40
52 52 53 53 53 54 54 54 54 54 54 54 53 51 51 51 50 50 50 49 48 48 47 46 46 46 45 44 43 42 42 42 42 42 42 42 41 41
53 53 53 54 54 54 54 54 53 53 53 53 53 52 52 52 51 51 50 50 49 48 48 47 46 46 45 44 43 42 42 42 43 43 43 43 43 43
53 53 53 54 54 54 54 54 53 53 53 53 52 52 53 53 52 52 51 50 49 49 48 48 47 46 45 44 43 43 43 42 42 43 43 43 43 43
54 54 54 55 55 55 55 55 55 54 54 53 53 52 52 52 52 52 51 50 50 49 49 48 47 46 45 45 44 43 43 42 42 42 42 42 42 43
56 55 56 56 56 56 56 56 55 55 55 54 53 53 52 52 52 52 50 50 50 49 48 47 46 45 45 44 44 43 42 42 42 41 41 42 42 42
56 56 57 57 56 56 56 56 55 55 54 53 52 52 51 51 51 50 49 49 49 48 47 46 45 44 44 44 43 42 42 42 42 42 42 42 41 41
56 56 56 56 55 55 54 54 53 52 52 51 50 49 49 49 48 48 47 46 46 45 45 44 44 44 43 43 43 42 42 42 42 42 41 41 41 40
56 55 55 54 53 53 52 51 50 50 49 48 48 47 46 46 46 46 45 44 44 43 43 42 43 44 44 43 43 42 42 41 41 40 39 39 38 38
55 54 53 52 51 50 49 48 48 47 47 46 45 44 43 43 43 42 42 42 42 42 42 41 42 42 41 41 41 41 40 40 39 39 38 37 36 36
52 51 50 49 48 47 47 46 45 45 44 43 43 42 41 40 40 40 40 40 40 40 39 39 40 40 39 38 38 38 38 37 37 36 36 36 35 34
48 47 46 46 45 45 44 44 43 42 41 40 39 39 39 39 38 37 37 37 38 38 38 37 37 38 37 36 35 34 35 35 35 34 34 34 33 33
44 44 43 43 42 41 41 41 40 40 39 38 38 38 37 37 36 35 35 35 36 36 35 35 35 36 35 34 32 32 33 33 33 32 32 32 31 30
41 40 40 39 39 38 38 38 37 37 37 37 37 36 36 35 34 33 34 34 33 34 34 34 34 33 32 31 30 30 31 31 31 31 30 30 30 29
37 37 37 36 36 36 36 36 36 36 36 36 35 34 33 33 32 32 32 32 32 32 32 31 31 31 30 29 29 29 29 29 29 29 29 29 28 28
Wind_Direction
268 270 270 272 271 273 275 277 278 278 279 279 280 281 282 283 282 281 281 283 282 281 279 279 279 281 283 284 285 286 285 285 285 285 286 288 288 288
267 269 270 271 272 273 275 277 278 278 279 279 279 280 281 281 281 281 282 282 281 280 279 279 280 281 283 283 284 284 284 284 284 285 286 287 286 286
267 269 270 272 273 274 275 276 277 277 278 279 279 280 280 280 280 281 281 280 280 280 280 280 281 282 284 283 283 283 282 283 284 286 287 287 286 285
268 269 270 271 272 273 274 275 276 277 278 278 279 279 279 280 280 280 279 279 279 280 280 280 281 282 284 284 284 283 282 283 284 285 286 286 285 285
268 269 271 272 272 273 274 275 275 276 277 277 277 277 278 279 279 279 278 279 279 279 280 280 280 280 282 284 283 282 282 283 284 284 285 285 286 285
269 270 271 271 272 273 273 274 275 275 276 277 276 276 277 278 278 278 278 278 278 279 280 280 279 280 281 282 282 282 281 282 283 283 282 283 284 284
269 270 270 271 271 272 273 273 274 275 275 276 276 276 277 277 277 277 277 278 278 278 279 279 280 280 281 281 281 281 281 281 281 281 281 281 282 283
270 270 270 271 272 273 273 274 274 275 275 276 276 276 276 276 276 276 276 276 277 277 278 279 279 280 280 280 280 280 280 280 279 279 280 281 282 283
270 270 270 271 272 273 274 274 275 275 275 275 275 275 275 275 275 275 275 275 276 277 277 278 278 279 279 279 280 280 280 279 279 279 280 280 281 282
270 271 271 271 272 273 274 275 275 275 275 274 274 274 274 274 274 274 275 275 276 277 278 278 278 278 278 279 279 279 279 279 279 279 280 280 280 281
271 271 271 272 273 273 274 274 274 274 274 274 273 273 273 274 273 273 274 274 275 276 277 277 277 277 276 277 278 278 278 279 279 279 280 280 280 280
271 272 272 272 272 273 273 274 274 274 274 274 274 273 273 274 273 273 273 273 273 275 276 276 276 275 275 275 276 277 278 279 279 279 280 281 281 281
272 272 272 272 272 273 273 274 274 273 274 274 274 273 274 274 273 272 272 272 272 273 275 275 274 274 274 275 275 276 278 279 279 280 281 281 282 282
273 273 274 274 274 274 274 274 273 273 273 273 273 273 273 273 272 271 271 270 270 272 273 273 273 273 274 274 275 276 278 279 279 281 282 283 283 282
273 273 273 274 274 274 274 273 273 273 273 273 273 273 272 271 271 270 269 269 269 270 271 271 271 271 273 274 275 277 278 279 279 280 281 282 283 282
272 273 273 274 274 274 273 272 272 272 272 272 272 272 272 271 270 269 268 269 269 269 270 270 270 271 272 274 276 277 278 279 279 280 281 282 282 281
272 273 273 274 274 273 272 271 271 271 271 271 271 271 271 270 269 268 267 267 267 268 269 269 270 271 273 274 275 276 277 278 279 279 280 281 281 281
272 273 273 273 272 271 270 269 270 270 270 270 270 270 270 269 268 268 267 267 266 267 268 267 269 271 273 275 275 276 277 277 278 279 281 281 281 280
272 272 272 271 270 269 268 268 269 269 269 269 269 268 267 268 267 267 267 266 266 267 268 268 269 271 273 275 275 276 276 277 277 278 280 282 281 281
272 272 271 270 269 268 268 268 268 268 268 268 268 267 267 268 267 266 266 265 265 265 266 268 270 271 273 275 275 275 275 276 277 278 279 282 282 282
270 270 270 269 268 268 267 267 267 266 266 266 267 267 268 268 266 265 265 265 265 264 265 267 269 271 272 273 273 274 275 276 277 278 279 281 282 281
269 268 268 267 267 267 266 266 265 265 265 266 266 266 266 265 264 264 265 264 263 263 264 266 268 269 270 271 272 273 274 276 277 279 281 281 281 281
267 266 266 266 266 266 265 264 264 264 265 265 264 263 262 262 262 263 262 261 261 262 263 265 266 267 268 269 271 272 274 275 277 280 281 282 283 283
Height
5720 5720 5720 5720 5721 5721 5720 5720 5721 5721 5721 5720 5718 5717 5716 5714 5713 5712 5711 5709 5708 5706 5705 5704 5703 5702 5701 5699 5698 5696 5694 5692 5690 5688 5686 5684 5682 5680
5710 5710 5710 5711 5711 5710 5710 5710 5710 5710 5710 5710 5709 5707 5706 5705 5703 5702 5701 5699 5698 5697 5696 5695 5694 5692 5691 5689 5687 5685 5683 5681 5679 5678 5675 5673 5671 5669
5699 5700 5700 5700 5700 5700 5700 5700 5699 5699 5699 5700 5698 5697 5695 5695 5693 5692 5691 5689 5688 5687 5686 5684 5683 5682 5680 5678 5676 5674 5673 5671 5669 5667 5665 5663 5661 5659
5688 5688 5689 5689 5689 5689 5689 5688 5688 5687 5687 5688 5687 5685 5684 5684 5683 5681 5680 5679 5678 5677 5675 5674 5672 5671 5669 5667 5665 5663 5662 5660 5658 5656 5654 5652 5650 5648
5676 5676 5676 5676 5677 5676 5676 5676 5676 5675 5675 5675 5675 5674 5673 5672 5671 5670 5669 5668 5667 5666 5664 5663 5661 5659 5658 5656 5654 5652 5651 5649 5647 5645 5643 5642 5640 5637
5663 5663 5663 5663 5664 5663 5664 5663 5663 5663 5662 5662 5662 5662 5661 5660 5659 5658 5657 5657 5656 5654 5653 5651 5650 5648 5646 5645 5643 5641 5640 5638 5636 5634 5633 5631 5629 5627
5649 5650 5650 5650 5650 5650 5650 5650 5650 5649 5649 5648 5648 5648 5648 5647 5646 5646 5645 5644 5643 5642 5641 5639 5638 5637 5634 5632 5631 5629 5628 5626 5625 5623 5622 5620 5618 5617
5636 5636 5636 5636 5636 5636 5636 5636 5636 5635 5635 5634 5634 5634 5634 5633 5633 5632 5632 5631 5631 5630 5628 5627 5625 5624 5622 5621 5619 5617 5616 5614 5613 5612 5610 5609 5607 5606
5621 5622 5622 5622 5622 5621 5621 5621 5621 5620 5620 5619 5619 5619 5619 5619 5618 5618 5617 5617 5617 5616 5615 5614 5612 5611 5609 5608 5607 5605 5604 5602 5601 5600 5598 5597 5596 5594
5606 5607 5607 5607 5606 5606 5606 5606 5606 5605 5604 5603 5604 5604 5603 5603 5603 5603 5602 5602 5603 5602 5601 5601 5599 5598 5597 5596 5595 5593 5592 5590 5589 5588 5586 5585 5583 5582
5591 5591 5591 5591 5591 5590 5590 5590 5590 5589 5588 5587 5587 5587 5587 5587 5587 5587 5587 5587 5588 5588 5587 5586 5586 5585 5584 5583 5582 5581 5579 5578 5577 5575 5574 5572 5571 5569
5575 5575 5575 5574 5574 5573 5573 5573 5574 5573 5572 5572 5571 5571 5571 5571 5571 5571 5572 5572 5572 5573 5572 5572 5571 5571 5571 5571 5569 5568 5567 5565 5564 5562 5561 5559 5557 5556
5558 5559 5558 5558 5557 5557 5556 5556 5556 5556 5556 5556 5555 5555 5555 5555 5555 5555 5556 5557 5557 5558 5558 5557 5557 5557 5557 5557 5557 5556 5554 5552 5551 5549 5548 5546 5544 5542
5541 5541 5541 5541 5540 5540 5539 5539 5539 5539 5539 5539 5539 5539 5539 5539 5539 5540 5541 5541 5542 5542 5542 5542 5543 5543 5543 5543 5544 5543 5542 5540 5538 5537 5535 5533 5531 5529
5523 5523 5523 5523 5523 5523 5522 5522 5521 5521 5522 5522 5523 5523 5522 5522 5523 5524 5525 5525 5527 5527 5527 5528 5528 5528 5529 5529 5530 5529 5529 5528 5526 5524 5522 5520 5518 5516
5505 5505 5505 5505 5505 5505 5505 5505 5504 5505 5505 5505 5506 5506 5506 5506 5507 5508 5509 5510 5512 5513 5514 5514 5514 5515 5515 5515 5515 5515 5515 5514 5513 5511 5509 5507 5505 5503
5488 5488 5489 5489 5489 5489 5489 5489 5488 5489 5489 5489 5490 5490 5490 5491 5492 5493 5495 5496 5498 5500 5501 5501 5500 5501 5501 5502 5502 5502 5501 5500 5499 5498 5496 5495 5493 5491
5471 5472 5473 5473 5473 5473 5473 5473 5473 5473 5474 5474 5474 5475 5476 5477 5478 5480 5481 5483 5485 5486 5487 5488 5488 5488 5489 5489 5489 5488 5488 5487 5486 5485 5484 5483 5482 5480
5454 5455 5456 5456 5456 5457 5457 5458 5458 5459 5459 5460 5460 5461 5462 5464 5465 5467 5468 5470 5471 5473 5474 5475 5475 5476 5476 5477 5477 5476 5475 5475 5474 5473 5472 5471 5470 5469
5439 5439 5440 5440 5441 5441 5442 5443 5444 5445 5446 5446 5447 5448 5449 5451 5453 5454 5456 5457 5459 5460 5462 5463 5463 5463 5464 5465 5465 5465 5463 5463 5463 5462 5461 5460 5458 5457
5425 5425 5425 5426 5426 5427 5428 5429 5430 5432 5433 5434 5435 5437 5438 5439 5441 5442 5444 5446 5447 5449 5450 5451 5451 5452 5452 5452 5453 5454 5453 5452 5451 5451 5450 5449 5448 5447
5411 5411 5412 5412 5413 5414 5415 5416 5417 5419 5421 5422 5424 5425 5426 5428 5430 5431 5433 5434 5436 5437 5439 5440 5440 5441 5441 5442 5443 5443 5443 5442 5441 5440 5439 5438 5437 5437
5397 5398 5399 5400 5401 5402 5403 5404 5406 5407 5409 5411 5412 5414 5415 5417 5419 5420 5422 5424 5425 5427 5428 5429 5430 5431 5432 5432 5433 5433 5433 5433 5432 5431 5430 5428 5427 5426